TimeEST,TemperatureF,Dew PointF,Humidity,Sea Level PressureIn,VisibilityMPH,Wind Direction,Wind SpeedMPH,Gust SpeedMPH,PrecipitationIn,Events,Conditions,WindDirDegrees,DateUTC
12:16 AM,39.2,39.2,100,29.87,0.5,SE,3.5,-,N/A,Fog,Fog,130,2000-01-10 05:16:00
12:36 AM,41.0,41.0,100,29.86,0.2,SE,3.5,-,N/A,Fog,Fog,130,2000-01-10 05:36:00
12:56 AM,42.8,42.8,100,29.84,0.2,Calm,Calm,-,N/A,Fog,Fog,0,2000-01-10 05:56:00
1:16 AM,41.0,41.0,100,29.84,0.2,Calm,Calm,-,N/A,Fog,Fog,0,2000-01-10 06:16:00
1:36 AM,42.8,42.8,100,29.82,0.2,Calm,Calm,-,N/A,Fog,Fog,0,2000-01-10 06:36:00
1:56 AM,42.8,42.8,100,29.81,0.2,Calm,Calm,-,N/A,Fog,Fog,0,2000-01-10 06:56:00
2:16 AM,44.6,44.6,100,29.81,0.2,SSE,4.6,-,N/A,Fog,Fog,160,2000-01-10 07:16:00
2:36 AM,46.4,46.4,100,29.80,1.2,ESE,5.8,-,N/A,,Overcast,120,2000-01-10 07:36:00
2:56 AM,46.4,46.4,100,29.79,0.2,SE,6.9,-,N/A,Fog,Fog,140,2000-01-10 07:56:00
3:16 AM,46.4,46.4,100,29.77,0.5,SE,6.9,-,0.00,Rain,Light Rain,140,2000-01-10 08:16:00
3:36 AM,48.2,48.2,100,29.76,3.0,SSE,5.8,-,0.00,Rain,Light Rain,150,2000-01-10 08:36:00
3:56 AM,48.2,48.2,100,29.75,1.0,Calm,Calm,-,0.00,Rain,Light Rain,0,2000-01-10 08:56:00
4:16 AM,46.4,46.4,100,29.76,1.5,SE,4.6,-,0.01,Rain,Rain,130,2000-01-10 09:16:00
4:36 AM,46.4,46.4,100,29.76,0.5,SE,5.8,-,0.08,Rain,Heavy Rain,130,2000-01-10 09:36:00
4:56 AM,46.4,46.4,100,29.71,0.5,ESE,3.5,-,0.00,Rain,Heavy Rain,110,2000-01-10 09:56:00
5:16 AM,46.4,46.4,100,29.72,1.8,Calm,Calm,-,0.04,Rain,Rain,0,2000-01-10 10:16:00
5:36 AM,46.4,46.4,100,29.72,1.8,Calm,Calm,-,0.09,Rain,Heavy Rain,0,2000-01-10 10:36:00
5:56 AM,46.4,46.4,100,29.71,2.0,East,3.5,-,0.00,Rain,Rain,100,2000-01-10 10:56:00
6:16 AM,46.4,46.4,100,29.69,0.5,Calm,Calm,-,0.08,Rain,Rain,0,2000-01-10 11:16:00
6:36 AM,46.4,46.4,100,29.69,1.2,Calm,Calm,-,0.14,Rain,Rain,0,2000-01-10 11:36:00
6:56 AM,46.4,46.4,100,29.69,0.5,Calm,Calm,-,0.00,Rain,Rain,0,2000-01-10 11:56:00
7:16 AM,46.4,46.4,100,29.70,2.5,West,5.8,-,0.05,Rain,Rain,270,2000-01-10 12:16:00
7:36 AM,44.6,44.6,100,29.71,10.0,WSW,18.4,34.5,0.07,Rain,Rain,240,2000-01-10 12:36:00
7:56 AM,46.4,44.6,93,29.72,7.0,SW,16.1,33.4,0.00,,Drizzle,230,2000-01-10 12:56:00
8:16 AM,46.4,42.8,87,29.69,10.0,SSW,9.2,-,0.01,Rain,Rain,210,2000-01-10 13:16:00
8:36 AM,46.4,44.6,93,29.64,10.0,SSW,4.6,-,0.01,,Light Drizzle,200,2000-01-10 13:36:00
8:56 AM,46.4,42.8,87,29.65,10.0,WSW,6.9,-,N/A,,Scattered Clouds,240,2000-01-10 13:56:00
9:16 AM,44.6,42.8,93,29.64,10.0,East,3.5,-,N/A,,Clear,80,2000-01-10 14:16:00
9:36 AM,46.4,44.6,93,29.66,10.0,East,3.5,-,N/A,,Scattered Clouds,80,2000-01-10 14:36:00
9:56 AM,50.0,42.8,76,29.67,10.0,SW,11.5,18.4,N/A,,Mostly Cloudy,230,2000-01-10 14:56:00
10:16 AM,51.8,41.0,67,29.66,10.0,SW,11.5,20.7,N/A,,Scattered Clouds,230,2000-01-10 15:16:00
10:36 AM,51.8,39.2,62,29.65,10.0,SSW,20.7,27.6,N/A,,Mostly Cloudy,200,2000-01-10 15:36:00
10:56 AM,51.8,39.2,62,29.67,10.0,SW,13.8,29.9,N/A,,Overcast,230,2000-01-10 15:56:00
11:16 AM,51.8,37.4,58,29.67,10.0,SW,12.7,27.6,N/A,,Mostly Cloudy,230,2000-01-10 16:16:00
11:36 AM,51.8,33.8,50,29.66,10.0,SW,18.4,32.2,N/A,,Mostly Cloudy,230,2000-01-10 16:36:00
11:56 AM,51.8,32.0,47,29.66,10.0,SW,23.0,32.2,N/A,,Scattered Clouds,220,2000-01-10 16:56:00
12:16 PM,51.8,32.0,47,29.65,10.0,SW,16.1,23.0,N/A,,Scattered Clouds,220,2000-01-10 17:16:00
12:36 PM,51.8,33.8,50,29.65,10.0,SW,20.7,27.6,N/A,,Mostly Cloudy,230,2000-01-10 17:36:00
12:56 PM,51.8,33.8,50,29.64,10.0,WSW,20.7,28.8,N/A,,Scattered Clouds,250,2000-01-10 17:56:00
1:16 PM,51.8,30.2,44,29.64,10.0,SW,13.8,27.6,N/A,,Scattered Clouds,230,2000-01-10 18:16:00
1:36 PM,50.0,28.4,43,29.64,10.0,WSW,20.7,33.4,N/A,,Clear,240,2000-01-10 18:36:00
1:56 PM,50.0,26.6,40,29.64,10.0,SW,18.4,35.7,N/A,,Clear,230,2000-01-10 18:56:00
2:16 PM,50.0,24.8,37,29.65,10.0,SW,15.0,29.9,N/A,,Clear,230,2000-01-10 19:16:00
2:36 PM,50.0,24.8,37,29.66,10.0,WSW,17.3,31.1,N/A,,Clear,240,2000-01-10 19:36:00
3:16 PM,48.2,26.6,43,29.68,10.0,SW,21.9,35.7,N/A,,Scattered Clouds,220,2000-01-10 20:16:00
3:36 PM,46.4,24.8,43,29.69,10.0,SW,13.8,29.9,N/A,,Clear,230,2000-01-10 20:36:00
3:56 PM,46.4,24.8,43,29.71,10.0,SW,15.0,36.8,N/A,,Clear,230,2000-01-10 20:56:00
4:16 PM,46.4,26.6,46,29.72,10.0,SW,15.0,31.1,N/A,,Scattered Clouds,230,2000-01-10 21:16:00
4:36 PM,46.4,26.6,46,29.71,10.0,WSW,26.5,32.2,N/A,,Clear,250,2000-01-10 21:36:00
4:56 PM,46.4,26.6,46,29.73,10.0,SW,10.4,18.4,N/A,,Clear,220,2000-01-10 21:56:00
5:16 PM,44.6,26.6,49,29.74,10.0,SW,11.5,21.9,N/A,,Clear,230,2000-01-10 22:16:00
5:36 PM,44.6,24.8,46,29.75,10.0,WSW,16.1,26.5,N/A,,Clear,240,2000-01-10 22:36:00
5:56 PM,44.6,24.8,46,29.76,10.0,WSW,13.8,29.9,N/A,,Clear,240,2000-01-10 22:56:00
6:16 PM,44.6,26.6,49,29.77,10.0,WSW,11.5,32.2,N/A,,Clear,240,2000-01-10 23:16:00
6:36 PM,44.6,24.8,46,29.77,10.0,WSW,21.9,35.7,N/A,,Clear,240,2000-01-10 23:36:00
6:56 PM,44.6,23.0,43,29.78,10.0,SW,18.4,29.9,N/A,,Clear,230,2000-01-10 23:56:00
7:16 PM,42.8,23.0,46,29.79,10.0,WSW,19.6,24.2,N/A,,Clear,240,2000-01-11 00:16:00
7:36 PM,42.8,23.0,46,29.80,10.0,WSW,9.2,21.9,N/A,,Clear,240,2000-01-11 00:36:00
7:56 PM,42.8,23.0,46,29.81,10.0,WSW,17.3,29.9,N/A,,Clear,240,2000-01-11 00:56:00
8:16 PM,44.6,23.0,43,29.82,10.0,WSW,21.9,32.2,N/A,,Clear,250,2000-01-11 01:16:00
8:36 PM,42.8,23.0,46,29.83,10.0,WSW,16.1,34.5,N/A,,Clear,250,2000-01-11 01:36:00
8:56 PM,44.6,23.0,43,29.83,10.0,WSW,19.6,25.3,N/A,,Clear,250,2000-01-11 01:56:00
9:16 PM,44.6,23.0,43,29.83,10.0,WSW,15.0,27.6,N/A,,Clear,240,2000-01-11 02:16:00
9:36 PM,42.8,21.2,42,29.83,10.0,WSW,18.4,25.3,N/A,,Clear,250,2000-01-11 02:36:00
9:56 PM,44.6,23.0,43,29.84,10.0,West,12.7,26.5,N/A,,Clear,260,2000-01-11 02:56:00
10:16 PM,44.6,23.0,43,29.83,10.0,West,16.1,27.6,N/A,,Clear,260,2000-01-11 03:16:00
10:36 PM,44.6,23.0,43,29.83,10.0,WSW,12.7,19.6,N/A,,Clear,250,2000-01-11 03:36:00
10:56 PM,44.6,23.0,43,29.82,10.0,WSW,11.5,21.9,N/A,,Clear,250,2000-01-11 03:56:00
11:16 PM,44.6,21.2,39,29.83,10.0,WSW,15.0,24.2,N/A,,Clear,250,2000-01-11 04:16:00
11:36 PM,44.6,21.2,39,29.84,10.0,WSW,13.8,26.5,N/A,,Clear,240,2000-01-11 04:36:00
11:56 PM,46.4,21.2,37,29.83,10.0,WSW,20.7,32.2,N/A,,Clear,240,2000-01-11 04:56:00